GPS IIR-19(M)

operational
NORAD ID: 32711 Int'l Des: 2008-012 Owner: AFSMC Country: US Constellation: GPS
MEOGNSS

关于 GPS IIR-19(M)

正在加载描述...

实时位置

正在加载3D地球...

即将过境

高度历史

Altitude vs Time

uPlot chart will show altitude changes over time

两行轨道根数

1 32711U 08012A 25353.65378309 .00000067 00000-0 00000-0 0 9997
2 32711 54.4779 157.0969 0202735 245.0276 112.8468 2.00565937130151
Epoch: Dec 19, 2025 • Age: 13 hours

当前状态

高度 20652.3 km
速度 3.81 km/s
星下点 28.77°N, 17.7°E
发射日期 Mar 15, 2008
运行时间 17.7 years
类型 navigation

技术详情

分类 Payload
质量 1077.00 kg
干质量 910.00 kg
总质量 2032.00 kg
长度 1.50 m
直径 1.90 m
跨度 19.30 m
形状 Box + 2 Pan
制造商 LMVF
平台类型 Series 4000
阶段状态 In Orbit
所有者/国家 AFSMC/US

大型星座

Loading constellations...